Hourly Data Report for December 04, 2011

HALIFAX STANFIELD INT'L A
NOVA SCOTIA

44°52'48.060" N
63°30'00.050" W
145.40 m
8202250
71395
YHZ

Download Data

Hourly Data (December 2011)
Hourly Data Report for December 4, 2011
TIME
LST
Temp Definition
°C
Dew Point Definition
°C
Rel Hum Definition
%
Precip. Amount Definition
mm

Wind Dir Definition
10's deg

Wind Spd Definition
km/h
Visibility Definition
km
Stn Press Definition
kPa
Hmdx Definition


Wind Chill Definition


Weather Definition


00:00 0.5 -0.8 91   11 4 24.1 101.99     Cloudy
01:00 0.3 -0.8 92   20 6 24.1 101.90     Cloudy
02:00 0.2 -1.0 92   18 6 24.1 101.89     Cloudy
03:00 0.2 -0.9 92   21 7 24.1 101.86     Cloudy
04:00 0.5 -1.4 87   24 9 24.1 101.89     Mostly Cloudy
05:00 0.1 -2.4 83   26 7 24.1 101.90     Mainly Clear
06:00 -2.0 -3.0 93   20 9 24.1 101.87   -5 Mainly Clear
07:00 -1.6 -3.2 89   23 9 24.1 101.88   -5 Mainly Clear
08:00 -2.0 -3.4 90   21 9 24.1 101.92   -5 Mainly Clear
09:00 0.3 -2.7 80   23 11 24.1 101.94     Mainly Clear
10:00 3.3 -1.8 69   20 11 24.1 101.94     Mainly Clear
11:00 4.2 -1.7 65   23 19 24.1 101.90     Mainly Clear
12:00 4.6 -1.6 64   23 28 24.1 101.75     Mostly Cloudy
13:00 5.3 -1.0 64   24 17 24.1 101.67     Mostly Cloudy
14:00 5.2 -1.1 64   23 24 24.1 101.58     Mainly Clear
15:00 4.8 -0.9 67   22 24 24.1 101.54     Mainly Clear
16:00 3.9 -0.7 72   21 15 24.1 101.54     Mainly Clear
17:00 1.9 -0.9 82   20 9 24.1 101.54     Mainly Clear
18:00 0.1 -1.0 92   20 15 24.1 101.50     Mainly Clear
19:00 1.9 0.5 90   21 15 24.1 101.45     Mainly Clear
20:00 2.5 0.6 87   21 22 24.1 101.37     Mainly Clear
21:00 2.5 0.4 86   22 30 24.1 101.38     Mainly Clear
22:00 2.7 0.8 87   22 17 24.1 101.37     Mainly Clear
23:00 2.5 0.9 89   23 20 24.1 101.36     Mainly Clear

Notes on Data Quality.

Legend

  • E = Estimated
  • M = Missing
  • NA = Not Available*
  • [empty] = Indicates an unobserved value
Date modified: